TimeCST,TemperatureF,Dew PointF,Humidity,Sea Level PressureIn,VisibilityMPH,Wind Direction,Wind SpeedMPH,Gust SpeedMPH,PrecipitationIn,Events,Conditions,WindDirDegrees,DateUTC
12:53 AM,21.9,12.0,66,29.59,10.0,WSW,3.5,-,N/A,,Clear,240,2014-01-30 06:53:00
1:53 AM,16.0,10.9,81,29.59,10.0,Calm,Calm,-,N/A,,Mostly Cloudy,0,2014-01-30 07:53:00
2:53 AM,18.0,10.9,74,29.59,10.0,Calm,Calm,-,N/A,,Overcast,0,2014-01-30 08:53:00
3:53 AM,18.0,12.0,78,29.59,6.0,Calm,Calm,-,N/A,,Haze,0,2014-01-30 09:53:00
4:10 AM,18.0,12.9,81,29.52,2.0,Calm,Calm,-,0.00,Snow,Light Snow,0,2014-01-30 10:10:00
4:23 AM,18.0,12.9,81,29.52,1.5,Calm,Calm,-,0.00,Snow,Light Snow,0,2014-01-30 10:23:00
4:49 AM,19.4,14.0,80,29.52,2.0,Calm,Calm,-,0.00,Snow,Light Snow,0,2014-01-30 10:49:00
4:53 AM,18.0,15.1,88,29.58,1.8,Calm,Calm,-,0.00,Snow,Light Snow,0,2014-01-30 10:53:00
5:17 AM,19.0,15.1,85,29.51,2.5,Calm,Calm,-,0.00,Snow,Light Snow,0,2014-01-30 11:17:00
5:25 AM,19.0,15.1,85,29.51,3.0,Calm,Calm,-,0.00,Snow,Light Snow,0,2014-01-30 11:25:00
5:32 AM,19.0,15.1,85,29.51,2.5,Calm,Calm,-,0.00,Snow,Light Snow,0,2014-01-30 11:32:00
5:50 AM,19.4,15.8,86,29.51,1.8,Calm,Calm,-,0.01,Snow,Light Snow,0,2014-01-30 11:50:00
5:53 AM,19.0,15.1,85,29.58,1.5,Calm,Calm,-,0.01,Snow,Light Snow,0,2014-01-30 11:53:00
6:27 AM,19.0,15.1,85,29.51,1.0,Calm,Calm,-,0.00,Snow,Light Snow,0,2014-01-30 12:27:00
6:43 AM,18.0,14.0,84,29.52,1.2,Variable,3.5,-,0.01,Snow,Light Snow,0,2014-01-30 12:43:00
6:53 AM,18.0,14.0,84,29.60,1.2,Variable,4.6,-,0.01,Snow,Light Snow,0,2014-01-30 12:53:00
7:09 AM,17.1,12.9,84,29.53,1.0,Variable,4.6,-,0.01,Snow,Light Snow,0,2014-01-30 13:09:00
7:49 AM,15.8,10.4,79,29.53,0.8,Variable,4.6,-,0.03,Snow,Light Snow,0,2014-01-30 13:49:00
7:53 AM,15.1,10.9,84,29.60,0.8,Variable,4.6,-,0.03,Snow,Light Snow,0,2014-01-30 13:53:00
8:00 AM,15.1,10.0,80,29.54,1.0,North,4.6,-,0.00,Snow,Light Snow,10,2014-01-30 14:00:00
8:23 AM,14.0,10.0,84,29.54,1.2,NNE,4.6,-,0.01,Snow,Light Snow,20,2014-01-30 14:23:00
8:46 AM,14.0,10.0,84,29.55,1.0,Variable,3.5,-,0.02,Snow,Light Snow,0,2014-01-30 14:46:00
8:53 AM,14.0,10.0,84,29.62,0.8,Variable,3.5,-,0.02,Snow,Light Snow,0,2014-01-30 14:53:00
9:02 AM,14.0,9.0,80,29.55,0.5,Variable,3.5,-,0.01,Snow,Snow,0,2014-01-30 15:02:00
9:53 AM,12.9,9.0,84,29.62,0.5,Variable,4.6,-,0.04,Fog-Snow,Snow,0,2014-01-30 15:53:00
10:07 AM,12.9,9.0,84,29.56,0.5,Variable,3.5,-,0.01,Fog-Snow,Snow,0,2014-01-30 16:07:00
10:18 AM,12.9,9.0,84,29.56,0.5,Variable,3.5,-,0.02,Fog-Snow,Snow,0,2014-01-30 16:18:00
10:53 AM,14.0,9.0,80,29.63,0.5,Variable,3.5,-,0.03,Snow,Snow,0,2014-01-30 16:53:00
11:53 AM,12.9,8.1,81,29.64,0.5,Variable,4.6,-,0.01,Snow,Snow,0,2014-01-30 17:53:00
12:32 PM,14.0,8.1,77,29.56,1.0,Variable,5.8,-,0.01,Snow,Light Snow,0,2014-01-30 18:32:00
12:38 PM,15.1,7.0,70,29.56,2.0,Variable,5.8,-,0.01,Snow,Light Snow,0,2014-01-30 18:38:00
12:48 PM,15.8,8.6,73,29.56,5.0,Variable,4.6,-,0.01,Snow,Light Snow,0,2014-01-30 18:48:00
12:53 PM,16.0,7.0,68,29.63,9.0,Variable,4.6,-,0.01,,Overcast,0,2014-01-30 18:53:00
1:53 PM,17.1,3.9,56,29.65,10.0,Variable,6.9,-,N/A,,Scattered Clouds,0,2014-01-30 19:53:00
2:53 PM,16.0,3.0,57,29.68,10.0,Variable,5.8,-,N/A,,Clear,0,2014-01-30 20:53:00
3:53 PM,15.1,-0.0,51,29.73,10.0,Variable,4.6,-,N/A,,Clear,0,2014-01-30 21:53:00
4:53 PM,12.0,-2.0,53,29.76,10.0,Variable,5.8,-,N/A,,Clear,0,2014-01-30 22:53:00
5:53 PM,9.0,-4.0,56,29.80,10.0,NNW,3.5,-,N/A,,Clear,330,2014-01-30 23:53:00
6:53 PM,6.1,-5.1,60,29.83,10.0,Variable,3.5,-,N/A,,Clear,0,2014-01-31 00:53:00
7:53 PM,1.9,-6.0,69,29.88,10.0,Calm,Calm,-,N/A,,Clear,0,2014-01-31 01:53:00
8:53 PM,-0.0,-8.0,69,29.93,10.0,Calm,Calm,-,N/A,,Clear,0,2014-01-31 02:53:00
9:53 PM,-0.9,-9.9,66,29.95,10.0,Calm,Calm,-,N/A,,Clear,0,2014-01-31 03:53:00
10:53 PM,-2.0,-11.0,66,29.99,10.0,West,4.6,-,N/A,,Clear,270,2014-01-31 04:53:00
11:53 PM,-5.1,-13.0,69,30.01,10.0,WSW,3.5,-,N/A,,Clear,250,2014-01-31 05:53:00